Retour au catalogue

YUNYAO-1 43

ActifMétéoSSO
NORAD 63344·PAYLOAD·🇨🇳 China

Lancé Mar 21, 2025 depuis Jiuquan Satellite Launch Center

Loading…

Prochains Passages (prochaines 24 heures)

TLE

FraisSource: Space-Track

Époque: Sep 14, 2026, 22:35 UTC

1 63344U 25059A   26257.94142407  .00002660  00000-0  16126-3 0  9997
2 63344  97.6140  78.8740 0013430 200.2587 159.8111 15.11367857 81850

Suivez YUNYAO-1 43 en temps réel avec AllMySat

Download on the App Store